Location: Red Deer
(52.2681°N, 113.8112°W)
Time: 04:24:05
(UTC-06:00)

VELOX 1 - Visible Passes

Search period start: 22 May 2022 00:00
Search period end: 01 June 2022 00:00
Orbit: 624 x 640 km, 98.4° (Epoch: 21 May)

Date Brightness Start Highest point End Pass type
(mag) Time Alt. Az. Time Alt. Az. Time Alt. Az.
22 May ? 03:52:19 10° ENE 03:53:37 11° NE 03:54:55 10° NNE visible
23 May ? 04:11:46 10° E 04:14:23 16° NE 04:17:01 10° NNE visible
24 May ? 04:31:49 10° ESE 04:35:11 22° ENE 04:38:34 10° N visible
27 May ? 04:00:25 10° ENE 04:02:21 13° NE 04:04:16 10° NNE visible
28 May ? 04:20:09 10° E 04:23:05 18° ENE 04:26:02 10° NNE visible
31 May ? 03:49:43 10° NE 03:50:14 10° NE 03:50:44 10° NE visible
